Time,TemperatureF,DewpointF,PressureIn,WindDirection,WindDirectionDegrees,WindSpeedMPH,WindSpeedGustMPH,Humidity,HourlyPrecipIn,Conditions,Clouds,dailyrainin,SoftwareType,DateUTC
2013-05-02 00:01:00,45.8,36.3,30.43,SSE,157,0.0,0.0,69,0.00,,,0.00,WUHU216DAVISVP2,2013-05-02 04:01:00,
2013-05-02 00:06:00,45.6,36.1,30.43,SSE,157,0.0,0.0,69,0.00,,,0.00,WUHU216DAVISVP2,2013-05-02 04:06:00,
2013-05-02 00:11:00,45.5,36.4,30.43,SSE,157,0.0,0.0,70,0.00,,,0.00,WUHU216DAVISVP2,2013-05-02 04:11:00,
2013-05-02 00:16:00,45.4,36.6,30.43,SSE,157,0.0,0.0,71,0.00,,,0.00,WUHU216DAVISVP2,2013-05-02 04:16:00,
2013-05-02 00:21:00,45.2,36.8,30.43,SSE,157,0.0,0.0,72,0.00,,,0.00,WUHU216DAVISVP2,2013-05-02 04:21:00,
2013-05-02 00:26:00,45.1,36.3,30.43,SSE,157,0.0,0.0,71,0.00,,,0.00,WUHU216DAVISVP2,2013-05-02 04:26:00,
2013-05-02 00:31:00,45.0,36.6,30.43,SSE,157,0.0,0.0,72,0.00,,,0.00,WUHU216DAVISVP2,2013-05-02 04:31:00,
2013-05-02 00:36:00,45.0,36.9,30.43,SSE,157,0.0,0.0,73,0.00,,,0.00,WUHU216DAVISVP2,2013-05-02 04:36:00,
2013-05-02 00:41:00,44.9,36.5,30.43,SSE,157,0.0,0.0,72,0.00,,,0.00,WUHU216DAVISVP2,2013-05-02 04:41:00,
2013-05-02 00:46:00,44.7,36.7,30.43,SSE,157,0.0,0.0,73,0.00,,,0.00,WUHU216DAVISVP2,2013-05-02 04:46:00,
2013-05-02 00:51:00,44.4,36.6,30.43,SSE,157,0.0,0.0,74,0.00,,,0.00,WUHU216DAVISVP2,2013-05-02 04:51:00,
2013-05-02 00:56:00,44.2,36.4,30.43,SSE,157,0.0,0.0,74,0.00,,,0.00,WUHU216DAVISVP2,2013-05-02 04:56:00,
2013-05-02 01:01:00,43.9,35.9,30.43,SSE,157,0.0,0.0,73,0.00,,,0.00,WUHU216DAVISVP2,2013-05-02 05:01:00,
2013-05-02 01:06:00,43.6,35.9,30.43,SSE,157,0.0,0.0,74,0.00,,,0.00,WUHU216DAVISVP2,2013-05-02 05:06:00,
2013-05-02 01:11:00,43.4,36.1,30.42,SSE,157,0.0,0.0,75,0.00,,,0.00,WUHU216DAVISVP2,2013-05-02 05:11:00,
2013-05-02 01:16:00,43.2,36.2,30.42,SSE,157,0.0,0.0,76,0.00,,,0.00,WUHU216DAVISVP2,2013-05-02 05:16:00,
2013-05-02 01:21:00,43.1,36.1,30.42,SSE,157,0.0,0.0,76,0.00,,,0.00,WUHU216DAVISVP2,2013-05-02 05:21:00,
2013-05-02 01:26:00,43.0,36.3,30.42,SSE,157,0.0,0.0,77,0.00,,,0.00,WUHU216DAVISVP2,2013-05-02 05:26:00,
2013-05-02 01:31:00,42.9,36.5,30.42,SSE,157,0.0,0.0,78,0.00,,,0.00,WUHU216DAVISVP2,2013-05-02 05:31:00,
2013-05-02 01:36:00,42.7,36.4,30.42,SSE,157,0.0,0.0,78,0.00,,,0.00,WUHU216DAVISVP2,2013-05-02 05:36:00,
2013-05-02 01:41:00,42.6,36.3,30.42,SSE,157,0.0,0.0,78,0.00,,,0.00,WUHU216DAVISVP2,2013-05-02 05:41:00,
2013-05-02 01:46:00,42.5,36.5,30.42,SSE,157,0.0,0.0,79,0.00,,,0.00,WUHU216DAVISVP2,2013-05-02 05:46:00,
2013-05-02 01:51:00,42.5,36.5,30.42,SSE,157,0.0,0.0,79,0.00,,,0.00,WUHU216DAVISVP2,2013-05-02 05:51:00,
2013-05-02 01:56:00,42.5,36.5,30.41,SSE,157,0.0,0.0,79,0.00,,,0.00,WUHU216DAVISVP2,2013-05-02 05:56:00,
2013-05-02 02:01:00,42.4,36.4,30.42,SSE,157,0.0,0.0,79,0.00,,,0.00,WUHU216DAVISVP2,2013-05-02 06:01:00,
2013-05-02 02:06:00,42.3,36.6,30.42,SSE,157,0.0,0.0,80,0.00,,,0.00,WUHU216DAVISVP2,2013-05-02 06:06:00,
2013-05-02 02:11:00,42.2,36.8,30.42,SSE,157,0.0,0.0,81,0.00,,,0.00,WUHU216DAVISVP2,2013-05-02 06:11:00,
2013-05-02 02:16:00,42.1,36.4,30.41,SSE,157,0.0,0.0,80,0.00,,,0.00,WUHU216DAVISVP2,2013-05-02 06:16:00,
2013-05-02 02:21:00,42.0,36.6,30.42,SSE,157,0.0,0.0,81,0.00,,,0.00,WUHU216DAVISVP2,2013-05-02 06:21:00,
2013-05-02 02:26:00,41.9,36.8,30.41,SSE,157,0.0,0.0,82,0.00,,,0.00,WUHU216DAVISVP2,2013-05-02 06:26:00,
2013-05-02 02:31:00,41.8,36.4,30.41,SSE,157,0.0,0.0,81,0.00,,,0.00,WUHU216DAVISVP2,2013-05-02 06:31:00,
2013-05-02 02:36:00,41.6,36.2,30.41,SSE,157,0.0,0.0,81,0.00,,,0.00,WUHU216DAVISVP2,2013-05-02 06:36:00,
2013-05-02 02:41:00,41.4,36.3,30.41,SSE,157,0.0,0.0,82,0.00,,,0.00,WUHU216DAVISVP2,2013-05-02 06:41:00,
2013-05-02 02:46:00,41.3,36.2,30.41,SSE,157,0.0,0.0,82,0.00,,,0.00,WUHU216DAVISVP2,2013-05-02 06:46:00,
2013-05-02 02:51:00,41.2,36.4,30.41,SSE,157,0.0,0.0,83,0.00,,,0.00,WUHU216DAVISVP2,2013-05-02 06:51:00,
2013-05-02 02:56:00,41.1,36.3,30.41,SSE,157,0.0,0.0,83,0.00,,,0.00,WUHU216DAVISVP2,2013-05-02 06:56:00,
2013-05-02 03:01:00,40.9,36.1,30.41,SSE,157,0.0,0.0,83,0.00,,,0.00,WUHU216DAVISVP2,2013-05-02 07:01:00,
2013-05-02 03:06:00,40.7,36.2,30.41,SSE,157,0.0,0.0,84,0.00,,,0.00,WUHU216DAVISVP2,2013-05-02 07:06:00,
2013-05-02 03:11:00,40.6,36.1,30.41,SSE,157,0.0,0.0,84,0.00,,,0.00,WUHU216DAVISVP2,2013-05-02 07:11:00,
2013-05-02 03:16:00,40.6,36.1,30.41,SSE,157,0.0,0.0,84,0.00,,,0.00,WUHU216DAVISVP2,2013-05-02 07:16:00,
2013-05-02 03:21:00,40.5,36.3,30.41,SSE,157,0.0,0.0,85,0.00,,,0.00,WUHU216DAVISVP2,2013-05-02 07:21:00,
2013-05-02 03:26:00,40.5,36.3,30.40,SSE,157,0.0,0.0,85,0.00,,,0.00,WUHU216DAVISVP2,2013-05-02 07:26:00,
2013-05-02 03:31:00,40.4,36.5,30.40,SSE,157,0.0,0.0,86,0.00,,,0.00,WUHU216DAVISVP2,2013-05-02 07:31:00,
2013-05-02 03:36:00,40.2,36.0,30.40,SSE,157,0.0,0.0,85,0.00,,,0.00,WUHU216DAVISVP2,2013-05-02 07:36:00,
2013-05-02 03:41:00,40.1,35.9,30.40,SSE,157,0.0,0.0,85,0.00,,,0.00,WUHU216DAVISVP2,2013-05-02 07:41:00,
2013-05-02 03:46:00,39.9,36.0,30.40,SSE,157,0.0,0.0,86,0.00,,,0.00,WUHU216DAVISVP2,2013-05-02 07:46:00,
2013-05-02 03:51:00,39.9,36.0,30.40,SSE,157,0.0,0.0,86,0.00,,,0.00,WUHU216DAVISVP2,2013-05-02 07:51:00,
2013-05-02 03:56:00,39.8,35.9,30.40,SSE,157,0.0,0.0,86,0.00,,,0.00,WUHU216DAVISVP2,2013-05-02 07:56:00,
2013-05-02 04:01:00,39.8,35.9,30.41,SSE,157,0.0,0.0,86,0.00,,,0.00,WUHU216DAVISVP2,2013-05-02 08:01:00,
2013-05-02 04:06:00,39.7,35.8,30.41,SSE,157,0.0,0.0,86,0.00,,,0.00,WUHU216DAVISVP2,2013-05-02 08:06:00,
2013-05-02 04:11:00,39.6,36.0,30.40,SSE,157,0.0,0.0,87,0.00,,,0.00,WUHU216DAVISVP2,2013-05-02 08:11:00,
2013-05-02 04:16:00,39.5,35.9,30.40,SSE,157,0.0,0.0,87,0.00,,,0.00,WUHU216DAVISVP2,2013-05-02 08:16:00,
2013-05-02 04:21:00,39.5,36.2,30.40,SSE,157,0.0,0.0,88,0.00,,,0.00,WUHU216DAVISVP2,2013-05-02 08:21:00,
2013-05-02 04:26:00,39.5,36.2,30.40,SSE,157,0.0,0.0,88,0.00,,,0.00,WUHU216DAVISVP2,2013-05-02 08:26:00,
2013-05-02 04:31:00,39.4,36.1,30.41,SSE,157,0.0,0.0,88,0.00,,,0.00,WUHU216DAVISVP2,2013-05-02 08:31:00,
2013-05-02 04:36:00,39.3,36.0,30.41,SSE,157,0.0,0.0,88,0.00,,,0.00,WUHU216DAVISVP2,2013-05-02 08:36:00,
2013-05-02 04:41:00,39.1,35.8,30.41,SSE,157,0.0,0.0,88,0.00,,,0.00,WUHU216DAVISVP2,2013-05-02 08:41:00,
2013-05-02 04:46:00,39.1,36.1,30.41,SSE,157,0.0,0.0,89,0.00,,,0.00,WUHU216DAVISVP2,2013-05-02 08:46:00,
2013-05-02 04:51:00,38.9,35.9,30.41,SSE,157,0.0,0.0,89,0.00,,,0.00,WUHU216DAVISVP2,2013-05-02 08:51:00,
2013-05-02 04:56:00,38.9,35.9,30.41,SSE,157,0.0,0.0,89,0.00,,,0.00,WUHU216DAVISVP2,2013-05-02 08:56:00,
2013-05-02 05:01:00,38.8,35.8,30.41,SSE,157,0.0,0.0,89,0.00,,,0.00,WUHU216DAVISVP2,2013-05-02 09:01:00,
2013-05-02 05:06:00,38.7,35.7,30.41,SSE,157,0.0,0.0,89,0.00,,,0.00,WUHU216DAVISVP2,2013-05-02 09:06:00,
2013-05-02 05:11:00,38.6,35.6,30.41,SSE,157,0.0,0.0,89,0.00,,,0.00,WUHU216DAVISVP2,2013-05-02 09:11:00,
2013-05-02 05:16:00,38.6,35.6,30.41,SSE,157,0.0,0.0,89,0.00,,,0.00,WUHU216DAVISVP2,2013-05-02 09:16:00,
2013-05-02 05:21:00,38.6,35.9,30.41,SSE,157,0.0,0.0,90,0.00,,,0.00,WUHU216DAVISVP2,2013-05-02 09:21:00,
2013-05-02 05:26:00,38.5,35.8,30.41,SSE,157,0.0,0.0,90,0.00,,,0.00,WUHU216DAVISVP2,2013-05-02 09:26:00,
2013-05-02 05:31:00,38.4,35.7,30.41,SSE,157,0.0,0.0,90,0.00,,,0.00,WUHU216DAVISVP2,2013-05-02 09:31:00,
2013-05-02 05:36:00,38.4,35.7,30.41,SSE,157,0.0,0.0,90,0.00,,,0.00,WUHU216DAVISVP2,2013-05-02 09:36:00,
2013-05-02 05:41:00,38.4,35.7,30.41,SSE,157,0.0,0.0,90,0.00,,,0.00,WUHU216DAVISVP2,2013-05-02 09:41:00,
2013-05-02 05:46:00,38.3,35.6,30.41,SSE,157,0.0,0.0,90,0.00,,,0.00,WUHU216DAVISVP2,2013-05-02 09:46:00,
2013-05-02 05:51:00,38.3,35.9,30.41,SSE,157,0.0,0.0,91,0.00,,,0.00,WUHU216DAVISVP2,2013-05-02 09:51:00,
2013-05-02 05:56:00,38.2,35.8,30.41,SSE,157,0.0,0.0,91,0.00,,,0.00,WUHU216DAVISVP2,2013-05-02 09:56:00,
2013-05-02 06:01:00,38.2,35.8,30.41,SSE,157,0.0,0.0,91,0.00,,,0.00,WUHU216DAVISVP2,2013-05-02 10:01:00,
2013-05-02 06:06:00,38.3,35.9,30.42,SSE,157,0.0,0.0,91,0.00,,,0.00,WUHU216DAVISVP2,2013-05-02 10:06:00,
2013-05-02 06:11:00,38.3,36.1,30.42,SSE,157,0.0,0.0,92,0.00,,,0.00,WUHU216DAVISVP2,2013-05-02 10:11:00,
2013-05-02 06:16:00,38.5,36.3,30.42,SSE,157,0.0,0.0,92,0.00,,,0.00,WUHU216DAVISVP2,2013-05-02 10:16:00,
2013-05-02 06:21:00,38.8,36.6,30.42,SSE,157,0.0,0.0,92,0.00,,,0.00,WUHU216DAVISVP2,2013-05-02 10:21:00,
2013-05-02 06:26:00,38.9,36.7,30.42,SSE,157,0.0,0.0,92,0.00,,,0.00,WUHU216DAVISVP2,2013-05-02 10:26:00,
2013-05-02 06:31:00,39.0,36.8,30.42,SSE,157,0.0,0.0,92,0.00,,,0.00,WUHU216DAVISVP2,2013-05-02 10:31:00,
2013-05-02 07:00:00,40.6,38.5,30.42,North,0,0.0,0.0,92,0.00,,,0.00,WUHU216DAVISVP2,2013-05-02 11:00:00,
2013-05-02 07:30:00,44.1,41.4,30.43,North,0,0.0,0.0,90,0.00,,,0.00,WUHU216DAVISVP2,2013-05-02 11:30:00,
2013-05-02 08:00:00,49.5,43.3,30.43,North,0,0.0,0.0,79,0.00,,,0.00,WUHU216DAVISVP2,2013-05-02 12:00:00,
2013-05-02 08:30:00,53.8,43.9,30.43,SSE,158,0.0,3.0,69,0.00,,,0.00,WUHU216DAVISVP2,2013-05-02 12:30:00,
2013-05-02 09:00:00,57.5,45.0,30.43,SSE,158,1.0,3.0,63,0.00,,,0.00,WUHU216DAVISVP2,2013-05-02 13:00:00,
2013-05-02 09:30:00,60.8,46.4,30.42,SSE,158,0.0,4.0,59,0.00,,,0.00,WUHU216DAVISVP2,2013-05-02 13:30:00,
2013-05-02 10:00:00,63.7,45.7,30.42,SSE,158,1.0,4.0,52,0.00,,,0.00,WUHU216DAVISVP2,2013-05-02 14:00:00,
2013-05-02 10:30:00,66.2,47.5,30.41,SSE,158,1.0,5.0,51,0.00,,,0.00,WUHU216DAVISVP2,2013-05-02 14:30:00,
2013-05-02 11:00:00,69.4,47.1,30.40,SSE,158,1.0,5.0,45,0.00,,,0.00,WUHU216DAVISVP2,2013-05-02 15:00:00,
2013-05-02 11:30:00,71.5,45.2,30.39,SSE,158,2.0,6.0,39,0.00,,,0.00,WUHU216DAVISVP2,2013-05-02 15:30:00,
2013-05-02 12:00:00,72.8,40.4,30.37,NW,315,1.0,7.0,31,0.00,,,0.00,WUHU216DAVISVP2,2013-05-02 16:00:00,
2013-05-02 12:30:00,75.2,41.6,30.36,NW,315,1.0,8.0,30,0.00,,,0.00,WUHU216DAVISVP2,2013-05-02 16:30:00,
2013-05-02 13:10:00,75.5,40.0,30.34,WNW,294,0.0,4.0,28,0.00,,,0.00,WUHU216DAVISVP2,2013-05-02 17:10:00,
2013-05-02 13:15:00,76.2,40.6,30.34,WNW,294,3.0,4.0,28,0.00,,,0.00,WUHU216DAVISVP2,2013-05-02 17:15:00,
2013-05-02 13:20:00,75.9,41.2,30.34,WNW,294,2.2,4.0,29,0.00,,,0.00,WUHU216DAVISVP2,2013-05-02 17:20:00,
2013-05-02 13:25:00,75.6,41.8,30.34,WNW,293,1.5,4.0,30,0.00,,,0.00,WUHU216DAVISVP2,2013-05-02 17:25:00,
2013-05-02 13:30:00,75.6,40.9,30.34,ESE,117,2.3,6.0,29,0.00,,,0.00,WUHU216DAVISVP2,2013-05-02 17:30:00,
2013-05-02 13:35:00,75.6,41.8,30.34,SSE,161,3.0,6.0,30,0.00,,,0.00,WUHU216DAVISVP2,2013-05-02 17:35:00,
2013-05-02 13:40:00,75.8,40.2,30.34,SE,146,3.1,7.0,28,0.00,,,0.00,WUHU216DAVISVP2,2013-05-02 17:40:00,
2013-05-02 13:45:00,76.6,40.9,30.33,SSE,150,3.0,7.0,28,0.00,,,0.00,WUHU216DAVISVP2,2013-05-02 17:45:00,
2013-05-02 13:50:00,77.1,41.5,30.34,SSE,160,2.9,7.0,28,0.00,,,0.00,WUHU216DAVISVP2,2013-05-02 17:50:00,
2013-05-02 13:55:00,77.0,44.7,30.33,SE,138,7.0,9.0,32,0.00,,,0.00,WUHU216DAVISVP2,2013-05-02 17:55:00,
2013-05-02 14:00:00,77.1,41.3,30.33,SSW,193,2.6,9.0,28,0.00,,,0.00,WUHU216DAVISVP2,2013-05-02 18:00:00,
2013-05-02 14:05:00,77.7,42.0,30.33,South,190,3.3,9.0,28,0.00,,,0.00,WUHU216DAVISVP2,2013-05-02 18:05:00,
2013-05-02 14:10:00,78.5,43.4,30.33,SE,135,3.6,9.0,29,0.00,,,0.00,WUHU216DAVISVP2,2013-05-02 18:10:00,
2013-05-02 14:15:00,79.0,42.0,30.32,East,84,4.8,9.0,27,0.00,,,0.00,WUHU216DAVISVP2,2013-05-02 18:15:00,
2013-05-02 14:20:00,79.7,41.8,30.32,ENE,72,4.0,9.0,26,0.00,,,0.00,WUHU216DAVISVP2,2013-05-02 18:20:00,
2013-05-02 14:25:00,79.8,41.7,30.32,NNE,27,4.0,9.0,26,0.00,,,0.00,WUHU216DAVISVP2,2013-05-02 18:25:00,
2013-05-02 14:30:00,79.9,41.8,30.32,SE,125,5.2,10.0,26,0.00,,,0.00,WUHU216DAVISVP2,2013-05-02 18:30:00,
2013-05-02 14:35:00,79.6,42.5,30.32,ESE,114,5.0,10.0,27,0.00,,,0.00,WUHU216DAVISVP2,2013-05-02 18:35:00,
2013-05-02 14:40:00,79.1,41.2,30.32,ESE,115,3.5,10.0,26,0.00,,,0.00,WUHU216DAVISVP2,2013-05-02 18:40:00,
2013-05-02 14:45:00,79.0,42.2,30.32,SSE,148,3.4,10.0,27,0.00,,,0.00,WUHU216DAVISVP2,2013-05-02 18:45:00,
2013-05-02 14:50:00,78.5,42.5,30.32,SW,230,3.8,10.0,28,0.00,,,0.00,WUHU216DAVISVP2,2013-05-02 18:50:00,
2013-05-02 14:55:00,78.7,43.6,30.32,ESE,123,18.0,21.0,29,0.00,,,0.00,WUHU216DAVISVP2,2013-05-02 18:55:00,
2013-05-02 15:00:00,77.5,46.1,30.33,ENE,66,11.0,23.0,33,0.00,,,0.00,WUHU216DAVISVP2,2013-05-02 19:00:00,
2013-05-02 15:05:00,75.2,45.7,30.33,ESE,114,12.0,24.0,35,0.00,,,0.00,WUHU216DAVISVP2,2013-05-02 19:05:00,
2013-05-02 15:10:00,73.5,45.5,30.33,East,94,8.0,24.0,37,0.00,,,0.00,WUHU216DAVISVP2,2013-05-02 19:10:00,
2013-05-02 15:15:00,72.2,45.7,30.34,ESE,116,14.0,23.0,39,0.00,,,0.00,WUHU216DAVISVP2,2013-05-02 19:15:00,
2013-05-02 15:20:00,70.7,46.4,30.34,ESE,121,8.0,23.0,42,0.00,,,0.00,WUHU216DAVISVP2,2013-05-02 19:20:00,
2013-05-02 15:25:00,70.0,46.4,30.34,East,84,6.2,22.0,43,0.00,,,0.00,WUHU216DAVISVP2,2013-05-02 19:25:00,
2013-05-02 15:30:00,69.5,45.3,30.35,ESE,115,12.0,21.0,42,0.00,,,0.00,WUHU216DAVISVP2,2013-05-02 19:30:00,
2013-05-02 15:35:00,68.2,45.4,30.35,East,94,7.1,21.0,44,0.00,,,0.00,WUHU216DAVISVP2,2013-05-02 19:35:00,
2013-05-02 15:40:00,66.7,44.6,30.35,ESE,116,16.0,22.0,45,0.00,,,0.00,WUHU216DAVISVP2,2013-05-02 19:40:00,
2013-05-02 15:45:00,65.2,44.4,30.35,ESE,114,7.9,22.0,47,0.00,,,0.00,WUHU216DAVISVP2,2013-05-02 19:45:00,
2013-05-02 15:50:00,64.7,44.6,30.36,ENE,63,13.0,22.0,48,0.00,,,0.00,WUHU216DAVISVP2,2013-05-02 19:50:00,
2013-05-02 15:55:00,63.4,44.9,30.36,East,101,7.4,21.0,51,0.00,,,0.00,WUHU216DAVISVP2,2013-05-02 19:55:00,
2013-05-02 16:00:00,63.2,46.8,30.37,ESE,102,5.9,21.0,55,0.00,,,0.00,WUHU216DAVISVP2,2013-05-02 20:00:00,
2013-05-02 16:05:00,62.9,46.5,30.37,ESE,107,7.9,21.0,55,0.00,,,0.00,WUHU216DAVISVP2,2013-05-02 20:05:00,
2013-05-02 16:10:00,62.5,47.2,30.37,ESE,115,8.0,18.0,57,0.00,,,0.00,WUHU216DAVISVP2,2013-05-02 20:10:00,
2013-05-02 16:15:00,61.7,45.0,30.38,ESE,108,11.5,17.0,54,0.00,,,0.00,WUHU216DAVISVP2,2013-05-02 20:15:00,
2013-05-02 16:20:00,60.9,45.7,30.38,East,100,8.0,19.0,57,0.00,,,0.00,WUHU216DAVISVP2,2013-05-02 20:20:00,
2013-05-02 16:25:00,60.4,45.2,30.39,East,98,10.0,19.0,57,0.00,,,0.00,WUHU216DAVISVP2,2013-05-02 20:25:00,
2013-05-02 16:30:00,59.5,44.8,30.39,ESE,103,10.0,19.0,58,0.00,,,0.00,WUHU216DAVISVP2,2013-05-02 20:30:00,
2013-05-02 16:35:00,58.2,45.4,30.39,East,91,5.1,17.0,62,0.00,,,0.00,WUHU216DAVISVP2,2013-05-02 20:35:00,
2013-05-02 16:40:00,57.8,45.0,30.40,East,87,3.0,16.0,62,0.00,,,0.00,WUHU216DAVISVP2,2013-05-02 20:40:00,
2013-05-02 16:45:00,57.7,45.3,30.40,East,101,7.0,16.0,63,0.00,,,0.00,WUHU216DAVISVP2,2013-05-02 20:45:00,
2013-05-02 16:50:00,57.3,45.4,30.40,ESE,112,3.8,13.0,64,0.00,,,0.00,WUHU216DAVISVP2,2013-05-02 20:50:00,
2013-05-02 16:55:00,56.9,45.4,30.40,ESE,122,2.3,11.0,65,0.00,,,0.00,WUHU216DAVISVP2,2013-05-02 20:55:00,
2013-05-02 17:00:00,56.5,44.6,30.41,NE,55,2.9,9.0,64,0.00,,,0.00,WUHU216DAVISVP2,2013-05-02 21:00:00,
2013-05-02 17:05:00,55.9,44.0,30.41,ENE,75,8.3,16.0,64,0.00,,,0.00,WUHU216DAVISVP2,2013-05-02 21:05:00,
2013-05-02 17:10:00,55.4,44.0,30.41,ESE,116,5.1,16.0,65,0.00,,,0.00,WUHU216DAVISVP2,2013-05-02 21:10:00,
2013-05-02 17:15:00,55.2,43.8,30.41,ENE,64,6.5,16.0,65,0.00,,,0.00,WUHU216DAVISVP2,2013-05-02 21:15:00,
2013-05-02 17:20:00,54.8,42.6,30.41,East,86,8.9,16.0,63,0.00,,,0.00,WUHU216DAVISVP2,2013-05-02 21:20:00,
2013-05-02 17:25:00,54.2,42.4,30.42,ESE,120,7.0,16.0,64,0.00,,,0.00,WUHU216DAVISVP2,2013-05-02 21:25:00,
2013-05-02 17:30:00,54.0,42.6,30.42,East,86,5.0,16.0,65,0.00,,,0.00,WUHU216DAVISVP2,2013-05-02 21:30:00,
2013-05-02 17:35:00,53.9,42.1,30.42,ENE,73,5.0,15.0,64,0.00,,,0.00,WUHU216DAVISVP2,2013-05-02 21:35:00,
2013-05-02 17:40:00,53.8,42.4,30.43,East,96,3.6,15.0,65,0.00,,,0.00,WUHU216DAVISVP2,2013-05-02 21:40:00,
2013-05-02 17:45:00,53.9,42.1,30.43,ESE,121,5.0,10.0,64,0.00,,,0.00,WUHU216DAVISVP2,2013-05-02 21:45:00,
2013-05-02 17:50:00,53.9,42.1,30.43,East,81,2.6,9.0,64,0.00,,,0.00,WUHU216DAVISVP2,2013-05-02 21:50:00,
2013-05-02 17:55:00,53.9,41.7,30.43,East,94,3.0,9.0,63,0.00,,,0.00,WUHU216DAVISVP2,2013-05-02 21:55:00,
2013-05-02 18:00:00,53.8,40.3,30.43,ENE,60,5.0,10.0,60,0.00,,,0.00,WUHU216DAVISVP2,2013-05-02 22:00:00,
2013-05-02 18:05:00,53.6,39.3,30.44,East,82,9.0,10.0,58,0.00,,,0.00,WUHU216DAVISVP2,2013-05-02 22:05:00,
2013-05-02 18:10:00,53.4,38.2,30.43,ESE,116,4.9,10.0,56,0.00,,,0.00,WUHU216DAVISVP2,2013-05-02 22:10:00,
2013-05-02 18:15:00,53.4,37.7,30.44,ENE,65,7.0,10.0,55,0.00,,,0.00,WUHU216DAVISVP2,2013-05-02 22:15:00,
2013-05-02 18:20:00,53.3,37.6,30.44,ENE,76,3.3,11.0,55,0.00,,,0.00,WUHU216DAVISVP2,2013-05-02 22:20:00,
2013-05-02 18:25:00,53.2,37.5,30.44,East,84,4.7,11.0,55,0.00,,,0.00,WUHU216DAVISVP2,2013-05-02 22:25:00,
2013-05-02 18:30:00,53.3,37.6,30.44,East,79,3.3,10.0,55,0.00,,,0.00,WUHU216DAVISVP2,2013-05-02 22:30:00,
2013-05-02 18:35:00,53.2,37.0,30.44,East,99,3.1,10.0,54,0.00,,,0.00,WUHU216DAVISVP2,2013-05-02 22:35:00,
2013-05-02 18:40:00,53.3,37.1,30.44,East,94,3.1,10.0,54,0.00,,,0.00,WUHU216DAVISVP2,2013-05-02 22:40:00,
2013-05-02 19:28:00,51.3,35.7,30.47,ESE,110,4.0,10.0,55,0.00,,,0.00,WUHU216DAVISVP2,2013-05-02 23:28:00,
2013-05-02 19:33:00,51.0,36.3,30.47,NE,42,4.6,10.0,57,0.00,,,0.00,WUHU216DAVISVP2,2013-05-02 23:33:00,
2013-05-02 19:38:00,50.9,36.7,30.47,East,94,2.3,10.0,58,0.00,,,0.00,WUHU216DAVISVP2,2013-05-02 23:38:00,
2013-05-02 19:43:00,50.8,37.1,30.47,ESE,112,2.0,10.0,59,0.00,,,0.00,WUHU216DAVISVP2,2013-05-02 23:43:00,
2013-05-02 19:48:00,50.7,37.4,30.47,ENE,75,1.8,10.0,60,0.00,,,0.00,WUHU216DAVISVP2,2013-05-02 23:48:00,
2013-05-02 19:53:00,50.6,37.3,30.47,ESE,111,3.0,10.0,60,0.00,,,0.00,WUHU216DAVISVP2,2013-05-02 23:53:00,
2013-05-02 19:58:00,50.5,37.6,30.47,ESE,107,2.5,10.0,61,0.00,,,0.00,WUHU216DAVISVP2,2013-05-02 23:58:00,
2013-05-02 20:03:00,50.5,37.6,30.48,ESE,106,2.8,10.0,61,0.00,,,0.00,WUHU216DAVISVP2,2013-05-03 00:03:00,
2013-05-02 20:08:00,50.4,37.4,30.48,East,94,3.0,10.0,61,0.00,,,0.00,WUHU216DAVISVP2,2013-05-03 00:08:00,
2013-05-02 20:13:00,50.4,37.9,30.47,East,88,3.4,10.0,62,0.00,,,0.00,WUHU216DAVISVP2,2013-05-03 00:13:00,
2013-05-02 20:18:00,50.4,38.3,30.47,ESE,115,1.9,10.0,63,0.00,,,0.00,WUHU216DAVISVP2,2013-05-03 00:18:00,
2013-05-02 20:23:00,50.5,38.0,30.47,ESE,122,3.5,10.0,62,0.00,,,0.00,WUHU216DAVISVP2,2013-05-03 00:23:00,
2013-05-02 20:28:00,50.5,38.4,30.48,SE,129,2.3,8.0,63,0.00,,,0.00,WUHU216DAVISVP2,2013-05-03 00:28:00,
2013-05-02 20:33:00,50.5,38.0,30.48,SE,138,2.1,8.0,62,0.00,,,0.00,WUHU216DAVISVP2,2013-05-03 00:33:00,
2013-05-02 20:38:00,50.5,38.5,30.48,SE,134,1.0,8.0,63,0.00,,,0.00,WUHU216DAVISVP2,2013-05-03 00:38:00,
2013-05-02 20:43:00,50.5,38.1,30.48,SE,134,0.0,6.0,62,0.00,,,0.00,WUHU216DAVISVP2,2013-05-03 00:43:00,
2013-05-02 20:48:00,50.5,38.9,30.48,SE,130,4.0,6.0,64,0.00,,,0.00,WUHU216DAVISVP2,2013-05-03 00:48:00,
2013-05-02 20:53:00,50.5,38.5,30.48,ESE,115,3.3,7.0,63,0.00,,,0.00,WUHU216DAVISVP2,2013-05-03 00:53:00,
2013-05-02 20:58:00,50.5,38.9,30.48,ESE,116,0.0,7.0,64,0.00,,,0.00,WUHU216DAVISVP2,2013-05-03 00:58:00,
2013-05-02 21:03:00,50.5,38.9,30.48,ESE,116,0.0,7.0,64,0.00,,,0.00,WUHU216DAVISVP2,2013-05-03 01:03:00,
2013-05-02 21:08:00,50.4,38.8,30.48,ESE,116,0.0,7.0,64,0.00,,,0.00,WUHU216DAVISVP2,2013-05-03 01:08:00,
2013-05-02 21:13:00,50.3,39.1,30.48,ESE,116,0.0,2.0,65,0.00,,,0.00,WUHU216DAVISVP2,2013-05-03 01:13:00,
2013-05-02 21:18:00,50.3,39.1,30.48,ESE,116,0.0,1.0,65,0.00,,,0.00,WUHU216DAVISVP2,2013-05-03 01:18:00,
2013-05-02 21:23:00,50.2,39.0,30.48,ESE,116,0.0,0.0,65,0.00,,,0.00,WUHU216DAVISVP2,2013-05-03 01:23:00,
2013-05-02 21:28:00,50.1,39.3,30.48,ESE,116,0.0,0.0,66,0.00,,,0.00,WUHU216DAVISVP2,2013-05-03 01:28:00,
2013-05-02 21:33:00,50.1,39.3,30.48,ESE,116,0.0,0.0,66,0.00,,,0.00,WUHU216DAVISVP2,2013-05-03 01:33:00,
2013-05-02 21:38:00,50.1,38.9,30.48,ESE,116,0.0,1.0,65,0.00,,,0.00,WUHU216DAVISVP2,2013-05-03 01:38:00,
2013-05-02 21:43:00,50.1,39.3,30.49,ESE,116,0.0,1.0,66,0.00,,,0.00,WUHU216DAVISVP2,2013-05-03 01:43:00,
2013-05-02 21:48:00,50.0,39.1,30.49,ESE,116,0.0,1.0,66,0.00,,,0.00,WUHU216DAVISVP2,2013-05-03 01:48:00,
2013-05-02 21:53:00,50.0,39.1,30.49,ESE,116,0.0,1.0,66,0.00,,,0.00,WUHU216DAVISVP2,2013-05-03 01:53:00,
2013-05-02 21:58:00,50.0,39.5,30.49,ESE,116,0.0,2.0,67,0.00,,,0.00,WUHU216DAVISVP2,2013-05-03 01:58:00,
2013-05-02 22:03:00,49.9,39.5,30.49,ESE,116,2.3,3.0,67,0.00,,,0.00,WUHU216DAVISVP2,2013-05-03 02:03:00,
2013-05-02 22:08:00,49.9,39.5,30.49,ESE,116,0.0,3.0,67,0.00,,,0.00,WUHU216DAVISVP2,2013-05-03 02:08:00,
2013-05-02 22:13:00,49.9,39.1,30.49,ESE,115,2.0,3.0,66,0.00,,,0.00,WUHU216DAVISVP2,2013-05-03 02:13:00,
2013-05-02 22:18:00,49.8,39.0,30.49,ESE,115,1.6,3.0,66,0.00,,,0.00,WUHU216DAVISVP2,2013-05-03 02:18:00,
2013-05-02 22:23:00,49.7,39.3,30.49,ESE,115,1.0,3.0,67,0.00,,,0.00,WUHU216DAVISVP2,2013-05-03 02:23:00,
2013-05-02 22:28:00,49.5,39.1,30.49,ESE,115,0.0,3.0,67,0.00,,,0.00,WUHU216DAVISVP2,2013-05-03 02:28:00,
2013-05-02 22:33:00,49.4,39.0,30.49,ESE,115,0.0,3.0,67,0.00,,,0.00,WUHU216DAVISVP2,2013-05-03 02:33:00,
2013-05-02 22:38:00,49.2,39.2,30.49,ESE,115,0.0,1.0,68,0.00,,,0.00,WUHU216DAVISVP2,2013-05-03 02:38:00,
2013-05-02 22:43:00,49.0,39.0,30.49,ESE,115,0.0,1.0,68,0.00,,,0.00,WUHU216DAVISVP2,2013-05-03 02:43:00,
2013-05-02 22:48:00,48.7,39.1,30.49,ESE,115,0.0,1.0,69,0.00,,,0.00,WUHU216DAVISVP2,2013-05-03 02:48:00,
2013-05-02 22:53:00,48.3,39.1,30.49,ESE,115,0.0,1.0,70,0.00,,,0.00,WUHU216DAVISVP2,2013-05-03 02:53:00,
2013-05-02 22:58:00,48.0,38.8,30.49,ESE,115,0.0,1.0,70,0.00,,,0.00,WUHU216DAVISVP2,2013-05-03 02:58:00,
2013-05-02 23:03:00,47.7,39.2,30.49,ESE,115,0.0,0.0,72,0.00,,,0.00,WUHU216DAVISVP2,2013-05-03 03:03:00,
2013-05-02 23:08:00,47.5,39.0,30.49,ESE,115,0.0,0.0,72,0.00,,,0.00,WUHU216DAVISVP2,2013-05-03 03:08:00,
2013-05-02 23:13:00,47.3,38.8,30.49,ESE,115,0.0,0.0,72,0.00,,,0.00,WUHU216DAVISVP2,2013-05-03 03:13:00,
2013-05-02 23:18:00,47.0,38.9,30.49,ESE,115,0.0,0.0,73,0.00,,,0.00,WUHU216DAVISVP2,2013-05-03 03:18:00,
2013-05-02 23:23:00,46.8,38.7,30.49,ESE,115,0.0,0.0,73,0.00,,,0.00,WUHU216DAVISVP2,2013-05-03 03:23:00,
2013-05-02 23:28:00,46.5,38.4,30.49,ESE,115,0.0,0.0,73,0.00,,,0.00,WUHU216DAVISVP2,2013-05-03 03:28:00,
2013-05-02 23:33:00,46.3,38.5,30.49,ESE,115,0.0,0.0,74,0.00,,,0.00,WUHU216DAVISVP2,2013-05-03 03:33:00,
2013-05-02 23:38:00,46.0,38.6,30.49,ESE,115,0.0,0.0,75,0.00,,,0.00,WUHU216DAVISVP2,2013-05-03 03:38:00,
2013-05-02 23:43:00,45.8,38.3,30.49,ESE,115,0.0,0.0,75,0.00,,,0.00,WUHU216DAVISVP2,2013-05-03 03:43:00,
2013-05-02 23:48:00,45.5,38.4,30.49,ESE,115,0.0,0.0,76,0.00,,,0.00,WUHU216DAVISVP2,2013-05-03 03:48:00,
2013-05-02 23:53:00,45.3,38.2,30.50,ESE,115,0.0,0.0,76,0.00,,,0.00,WUHU216DAVISVP2,2013-05-03 03:53:00,
2013-05-02 23:58:00,45.0,38.2,30.50,ESE,115,0.0,0.0,77,0.00,,,0.00,WUHU216DAVISVP2,2013-05-03 03:58:00,